CDT,Max TemperatureF,Mean TemperatureF,Min TemperatureF,Max Dew PointF,MeanDew PointF,Min DewpointF,Max Humidity, Mean Humidity, Min Humidity, Max Sea Level PressureIn, Mean Sea Level PressureIn, Min Sea Level PressureIn, Max VisibilityMiles, Mean VisibilityMiles, Min VisibilityMiles, Max Wind SpeedMPH, Mean Wind SpeedMPH, Max Gust SpeedMPH,PrecipitationIn, CloudCover, Events, WindDirDegrees
2013-4-1,79,67,55,62,56,53,97,70,43,30.12,30.03,29.98,10,7,1,13,5,16,0.00,2,,74
2013-4-2,77,68,58,62,58,55,97,75,53,30.09,30.02,29.90,10,6,0,21,8,25,1.08,3,Fog,86
2013-4-3,66,58,49,63,55,46,93,85,77,30.08,29.93,29.77,10,7,1,38,13,45,2.01,8,Rain-Thunderstorm,17
2013-4-4,55,52,48,46,45,42,93,82,71,30.17,30.08,30.00,10,9,5,17,10,23,T,8,,333
2013-4-5,74,61,47,52,44,41,96,65,33,30.25,30.17,30.12,10,10,9,15,6,21,0.00,2,,344
2013-4-6,73,61,49,57,52,46,93,74,55,30.16,30.11,30.04,10,8,1,16,6,23,0.00,2,,161
2013-4-7,77,68,59,64,59,56,97,74,50,30.07,30.01,29.96,10,10,10,20,9,23,0.00,7,,150
2013-4-8,80,73,66,65,63,61,93,74,54,29.96,29.92,29.87,10,10,10,24,13,32,0.00,6,,156
2013-4-9,81,74,67,70,68,64,93,84,74,29.93,29.88,29.83,10,9,5,35,17,44,T,6,,149
2013-4-10,82,71,59,70,70,69,87,78,69,29.88,29.82,29.76,10,9,7,35,17,43,0.00,7,,160
2013-4-11,67,58,49,70,49,46,93,75,56,29.91,29.80,29.70,10,8,1,23,8,31,1.11,6,Rain-Thunderstorm,338
2013-4-12,78,63,47,53,47,41,93,61,28,30.05,29.97,29.91,10,10,9,12,3,15,0.00,0,,44
2013-4-13,79,65,51,58,51,47,89,62,35,30.04,29.96,29.86,10,10,10,17,7,24,T,0,,110
2013-4-14,77,69,60,65,60,56,93,75,56,29.85,29.79,29.74,10,10,6,14,5,17,0.07,6,Rain-Thunderstorm,110
2013-4-15,84,73,61,72,66,60,100,81,62,29.93,29.85,29.78,10,7,0,15,7,18,0.00,5,Fog,153
2013-4-16,84,79,74,73,72,71,93,81,69,30.04,29.98,29.89,10,9,2,21,12,26,T,8,Rain,154
2013-4-17,85,80,74,72,71,70,93,79,65,30.03,29.95,29.86,10,10,8,29,17,37,0.00,8,,152
2013-4-18,83,68,53,72,65,48,93,81,69,30.04,29.83,29.73,10,9,2,26,15,37,0.11,7,Rain,182
2013-4-19,67,56,45,45,37,31,86,57,28,30.25,30.15,30.03,10,10,10,24,10,35,0.00,1,,358
2013-4-20,71,57,42,49,39,35,89,60,31,30.30,30.22,30.14,10,10,10,15,4,20,0.00,0,,85
2013-4-21,75,61,47,51,47,44,93,66,38,30.23,30.17,30.11,10,10,10,16,5,21,0.00,0,,75
2013-4-22,78,65,51,59,53,48,90,63,36,30.15,30.09,30.01,10,10,9,14,5,20,0.00,0,,117
2013-4-23,83,71,58,70,65,56,93,76,58,30.04,30.00,29.95,10,9,5,17,7,23,0.00,6,,160
2013-4-24,73,63,53,70,56,48,89,71,53,30.25,30.10,29.94,10,9,2,29,13,36,0.25,7,Rain-Thunderstorm,6
2013-4-25,74,64,53,52,46,43,77,56,35,30.34,30.27,30.22,10,10,10,22,13,26,0.00,5,,56
2013-4-26,79,70,60,68,61,49,90,71,52,30.27,30.21,30.16,10,10,8,20,7,23,0.00,7,,140
2013-4-27,80,74,68,70,68,65,93,79,64,30.17,30.10,30.02,10,9,5,24,6,30,0.09,6,Rain-Thunderstorm,193
2013-4-28,79,71,63,67,64,60,93,75,56,30.05,30.00,29.94,10,10,9,15,5,22,0.01,5,Rain,172
2013-4-29,81,71,61,70,63,59,100,79,58,30.00,29.93,29.88,10,6,0,16,4,20,0.16,3,Fog-Rain-Thunderstorm,114
2013-4-30,82,75,67,69,67,64,93,78,62,29.90,29.85,29.80,10,9,4,24,5,29,0.01,5,Rain-Thunderstorm,97